User: anonymous   Login
Location: Unspecified
(0.0000°N, 0.0000°E)
Time: 09:31:51
(UTC+00:00)
Language:

CANX 3B (BRITE-ASRA) - Orbit

View from above orbital plane
View from above orbital plane
View from above satellite
View from above satellite

Ground track
Ground track

The orbit data is extracted from the following two-line orbital elements,

1 39091U 13009F   14295.77233003  .00000312  00000-0  12579-3 0  5057
2 39091 098.6135 130.0890 0009514 299.0983 060.9248 14.34745268 86610
Epoch (UTC): 22 October 2014 18:32:09
Eccentricity: 0.0009514
inclination: 98.6135°
perigee height: 769 km
apogee height: 783 km
right ascension of ascending node: 130.0890°
argument of perigee: 299.0983°
revolutions per day: 14.34745268
mean anomaly at epoch: 60.9248°
orbit number at epoch: 8661

The dashed part of the orbit path shows where the satellite is in the earth's shadow,  

DLR